When you browse on this site, cookies collect data to enhance your experience and personalize the content and advertising you see.
Visit our Privacy Policy to learn more. By continuing to use the site, you agree to this use of cookies and data.
  • en France
  • Liste des pays
  • À 7 jours
  • Température de l'eau
  • Carte météo
  • Widgets météo
  • user-avatar
    Se connecter

    Météo par heure à Paris

    Ce jour, 30 Mars, Lundi

    Heure Température Précipitation Vent Pression Humidité
    00:00 -1°C° 0 mm 7 m/s 768 mmHg 51%
    01:00 -2°C° 0 mm 7 m/s 767 mmHg 52%
    02:00 -2°C° 0 mm 7 m/s 767 mmHg 52%
    03:00 -3°C° 0 mm 7 m/s 767 mmHg 53%
    04:00 -3°C° 0 mm 7 m/s 767 mmHg 52%
    05:00 -3°C° 0 mm 7 m/s 767 mmHg 52%
    06:00 -3°C° 0 mm 6 m/s 767 mmHg 51%
    07:00 -2°C° 0 mm 7 m/s 767 mmHg 46%
    08:00 -1°C° 0 mm 7 m/s 767 mmHg 41%
    09:00 +2°C° 0 mm 7 m/s 767 mmHg 37%
    10:00 +3°C° 0 mm 7 m/s 766 mmHg 35%
    11:00 +4°C° 0 mm 7 m/s 766 mmHg 33%
    12:00 +5°C° 0 mm 7 m/s 766 mmHg 32%
    13:00 +6°C° 0 mm 7 m/s 765 mmHg 33%
    14:00 +6°C° 0 mm 7 m/s 765 mmHg 35%
    15:00 +8°C° 0 mm 7 m/s 764 mmHg 37%
    16:00 +7°C° 0 mm 6 m/s 764 mmHg 43%
    17:00 +5°C° 0 mm 6 m/s 764 mmHg 49%
    18:00 +6°C° 0 mm 5 m/s 764 mmHg 55%
    19:00 +5°C° 0 mm 5 m/s 764 mmHg 58%
    20:00 +5°C° 0 mm 5 m/s 764 mmHg 62%
    21:00 +3°C° 0 mm 5 m/s 765 mmHg 65%
    22:00 +2°C° 0 mm 5 m/s 765 mmHg 70%
    23:00 +2°C° 0 mm 5 m/s 765 mmHg 75%

    Demain, 31 Mars, Mardi

    Heure Température Précipitation Vent Pression Humidité
    00:00 +3°C° 0 mm 4 m/s 765 mmHg 80%
    01:00 +1°C° 0 mm 4 m/s 765 mmHg 83%
    02:00 +1°C° 0 mm 4 m/s 765 mmHg 86%
    03:00 0°C° 0 mm 4 m/s 765 mmHg 88%
    04:00 +1°C° 0 mm 3 m/s 765 mmHg 89%
    05:00 +1°C° 0 mm 3 m/s 765 mmHg 89%
    06:00 +1°C° 0 mm 3 m/s 765 mmHg 90%
    07:00 +1°C° 0 mm 4 m/s 765 mmHg 82%
    08:00 +4°C° 0 mm 4 m/s 765 mmHg 74%
    09:00 +5°C° 0 mm 5 m/s 765 mmHg 66%
    10:00 +7°C° 0 mm 5 m/s 765 mmHg 60%
    11:00 +8°C° 0 mm 5 m/s 765 mmHg 55%
    12:00 +9°C° 0 mm 6 m/s 765 mmHg 49%
    13:00 +10°C° 0 mm 5 m/s 764 mmHg 47%
    14:00 +10°C° 0 mm 5 m/s 764 mmHg 45%
    15:00 +10°C° 0 mm 5 m/s 764 mmHg 44%
    16:00 +9°C° 0 mm 5 m/s 764 mmHg 46%
    17:00 +8°C° 0 mm 5 m/s 764 mmHg 47%
    18:00 +7°C° 0 mm 4 m/s 764 mmHg 49%
    19:00 +6°C° 0 mm 4 m/s 764 mmHg 50%
    20:00 +6°C° 0 mm 4 m/s 764 mmHg 52%
    21:00 +5°C° 0 mm 4 m/s 764 mmHg 53%
    22:00 +4°C° 0 mm 4 m/s 764 mmHg 54%
    23:00 +3°C° 0 mm 3 m/s 764 mmHg 55%

    Après-demain, 1 Avril, Mercredi

    Heure Température Précipitation Vent Pression Humidité
    00:00 +3°C° 0 mm 3 m/s 764 mmHg 56%
    01:00 +2°C° 0 mm 3 m/s 763 mmHg 57%
    02:00 +1°C° 0 mm 3 m/s 763 mmHg 58%
    03:00 +1°C° 0 mm 3 m/s 763 mmHg 58%
    04:00 +1°C° 0 mm 3 m/s 763 mmHg 58%
    05:00 +2°C° 0 mm 2 m/s 763 mmHg 58%
    06:00 +1°C° 0 mm 2 m/s 763 mmHg 57%
    07:00 +3°C° 0 mm 2 m/s 763 mmHg 52%
    08:00 +4°C° 0 mm 3 m/s 762 mmHg 47%
    09:00 +7°C° 0 mm 3 m/s 762 mmHg 42%
    10:00 +8°C° 0 mm 3 m/s 762 mmHg 39%
    11:00 +9°C° 0 mm 3 m/s 762 mmHg 36%
    12:00 +11°C° 0 mm 3 m/s 762 mmHg 34%
    13:00 +11°C° 0 mm 3 m/s 761 mmHg 34%
    14:00 +12°C° 0 mm 3 m/s 761 mmHg 34%
    15:00 +12°C° 0 mm 3 m/s 760 mmHg 34%
    16:00 +11°C° 0 mm 3 m/s 760 mmHg 39%
    17:00 +10°C° 0 mm 3 m/s 760 mmHg 44%
    18:00 +9°C° 0 mm 2 m/s 760 mmHg 49%
    19:00 +8°C° 0 mm 2 m/s 760 mmHg 53%
    20:00 +7°C° 0 mm 2 m/s 760 mmHg 57%
    21:00 +6°C° 0 mm 2 m/s 760 mmHg 61%
    22:00 +5°C° 0 mm 2 m/s 760 mmHg 66%
    23:00 +5°C° 0 mm 2 m/s 760 mmHg 70%

    2 Avril, Jeudi

    Heure Température Précipitation Vent Pression Humidité
    00:00 +4°C° 0 mm 2 m/s 760 mmHg 74%
    01:00 +4°C° 0 mm 2 m/s 759 mmHg 77%
    02:00 +3°C° 0 mm 2 m/s 759 mmHg 80%
    03:00 +3°C° 0 mm 2 m/s 759 mmHg 83%
    04:00 +3°C° 0 mm 2 m/s 759 mmHg 83%
    05:00 +3°C° 0 mm 2 m/s 759 mmHg 84%
    06:00 +2°C° 0 mm 2 m/s 759 mmHg 84%
    07:00 +4°C° 0 mm 2 m/s 759 mmHg 75%
    08:00 +6°C° 0 mm 2 m/s 758 mmHg 67%
    09:00 +7°C° 0 mm 2 m/s 758 mmHg 58%
    10:00 +8°C° 0 mm 2 m/s 758 mmHg 55%
    11:00 +9°C° 0 mm 2 m/s 758 mmHg 52%
    12:00 +9°C° 0 mm 2 m/s 758 mmHg 49%
    13:00 +9°C° 0 mm 2 m/s 757 mmHg 49%
    14:00 +10°C° 0 mm 3 m/s 757 mmHg 49%
    15:00 +10°C° 0 mm 3 m/s 757 mmHg 49%
    16:00 +9°C° 0 mm 3 m/s 757 mmHg 53%
    17:00 +8°C° 0 mm 3 m/s 757 mmHg 57%
    18:00 +8°C° 0 mm 3 m/s 757 mmHg 60%
    19:00 +7°C° 0 mm 3 m/s 757 mmHg 64%
    20:00 +7°C° 0 mm 2 m/s 758 mmHg 67%
    21:00 +7°C° 0 mm 2 m/s 758 mmHg 71%
    22:00 +6°C° 0 mm 2 m/s 758 mmHg 75%
    23:00 +6°C° 0 mm 2 m/s 758 mmHg 79%

    3 Avril, Vendredi

    Heure Température Précipitation Vent Pression Humidité
    00:00 +5°C° 0 mm 2 m/s 758 mmHg 83%
    01:00 +5°C° 0 mm 2 m/s 758 mmHg 84%
    02:00 +5°C° 0 mm 2 m/s 758 mmHg 86%
    03:00 +5°C° 0 mm 2 m/s 758 mmHg 87%
    04:00 +5°C° 0 mm 2 m/s 758 mmHg 88%
    05:00 +5°C° 0 mm 2 m/s 759 mmHg 88%
    06:00 +6°C° 0 mm 1 m/s 759 mmHg 89%
    07:00 +7°C° 0 mm 2 m/s 759 mmHg 81%
    08:00 +8°C° 0 mm 2 m/s 760 mmHg 74%
    09:00 +9°C° 0 mm 2 m/s 760 mmHg 67%
    10:00 +10°C° 0 mm 2 m/s 760 mmHg 61%
    11:00 +13°C° 0 mm 2 m/s 760 mmHg 55%
    12:00 +14°C° 0 mm 2 m/s 761 mmHg 50%
    13:00 +13°C° 0 mm 2 m/s 761 mmHg 50%
    14:00 +12°C° 0 mm 3 m/s 761 mmHg 51%
    15:00 +12°C° 0 mm 3 m/s 760 mmHg 51%
    16:00 +13°C° 0 mm 2 m/s 761 mmHg 54%
    17:00 +12°C° 0 mm 2 m/s 761 mmHg 56%
    18:00 +10°C° 0 mm 2 m/s 761 mmHg 59%
    19:00 +9°C° 0 mm 2 m/s 761 mmHg 62%
    20:00 +8°C° 0 mm 2 m/s 762 mmHg 65%
    21:00 +7°C° 0 mm 3 m/s 762 mmHg 69%
    22:00 +7°C° 0 mm 2 m/s 762 mmHg 70%
    23:00 +6°C° 0 mm 2 m/s 762 mmHg 71%

    4 Avril, Samedi

    Heure Température Précipitation Vent Pression Humidité
    00:00 +6°C° 0 mm 2 m/s 762 mmHg 73%
    01:00 +5°C° 0 mm 2 m/s 762 mmHg 74%
    02:00 +5°C° 0 mm 2 m/s 762 mmHg 75%
    03:00 +4°C° 0 mm 2 m/s 762 mmHg 76%
    04:00 +4°C° 0 mm 2 m/s 762 mmHg 77%
    05:00 +4°C° 0 mm 2 m/s 762 mmHg 77%
    06:00 +3°C° 0 mm 3 m/s 762 mmHg 77%
    07:00 +5°C° 0 mm 3 m/s 762 mmHg 71%
    08:00 +7°C° 0 mm 3 m/s 762 mmHg 65%
    09:00 +9°C° 0 mm 3 m/s 761 mmHg 60%
    10:00 +11°C° 0 mm 3 m/s 761 mmHg 55%
    11:00 +13°C° 0 mm 4 m/s 761 mmHg 50%
    12:00 +14°C° 0 mm 4 m/s 761 mmHg 45%
    13:00 +15°C° 0 mm 4 m/s 760 mmHg 45%
    14:00 +17°C° 0 mm 3 m/s 760 mmHg 45%
    15:00 +17°C° 0 mm 3 m/s 760 mmHg 44%
    16:00 +16°C° 0 mm 3 m/s 760 mmHg 49%
    17:00 +15°C° 0 mm 2 m/s 760 mmHg 53%
    18:00 +14°C° 0 mm 1 m/s 759 mmHg 58%
    19:00 +14°C° 0 mm 1 m/s 760 mmHg 60%
    20:00 +13°C° 0 mm 1 m/s 760 mmHg 63%
    21:00 +12°C° 0 mm 2 m/s 760 mmHg 65%
    22:00 +12°C° 0 mm 1 m/s 761 mmHg 67%
    23:00 +12°C° 0 mm 1 m/s 761 mmHg 69%
    Voir plus